Location: Ebenezer
(18.2167°N, 63.0667°W)
Time: 17:16:26
(UTC+00:00)

Cosmos 2056 Rocket - Pass Details

Date: 26 January 2020
Orbit: 741 x 801 km, 74.0° (Epoch: 22 February)

Event Time Altitude Azimuth Distance (km) Brightness Sun altitude
Rises 22:44:40 0° 183° (S) 3,186 7.0 -10.2°
Reaches altitude 10° 22:47:03 10° 178° (S) 2,271 6.1 -10.8°
Maximum altitude 22:52:04 54° 102° (ESE) 924 3.6 -11.9°
Drops below altitude 10° 22:57:10 10° 25° (NNE) 2,314 5.6 -13.1°
Enters shadow 22:58:37 - 22° (NNE) 2,867 6.1 -13.4°
